User: anonymous   Login
Location: Franzen
(48.6167°N, 15.3833°E)
Time: 23:52:52
(UTC+00:00)
Language:

BREEZE-M DEB (TANK) - Orbit

View from above orbital plane
View from above orbital plane
View from above satellite
View from above satellite

Ground track
Ground track

The orbit data is extracted from the following two-line orbital elements,

1 27821U 03024B   21172.08892714  .00003000  00000-0  38573-3 0  9993
2 27821  49.5948  23.6023 4884883  79.4052 330.1869  5.83606628365410
Epoch (UTC): 21 June 2021 02:08:03
Eccentricity: 0.4884883
inclination: 49.5948°
perigee height: 287 km
apogee height: 13019 km
right ascension of ascending node: 23.6023°
argument of perigee: 79.4052°
revolutions per day: 5.83606628
mean anomaly at epoch: 330.1869°
orbit number at epoch: 36541

The dashed part of the orbit path shows where the satellite is in the earth's shadow,  

DLR